Location: Sungai Igah
(2.7333°N, 114.2500°E)
Time: 22:05:15
(UTC+00:00)

ARIANE 5 R/B - Pass Details

Date: 14 June 2021
Orbit: 601 x 39554 km, 6.6° (Epoch: 23 July)

Event Time Altitude Azimuth Distance (km) Brightness Sun altitude
Exits shadow 20:16:02 66° 256° (WSW) 1,160 4.0 -27.7°
Maximum altitude 20:16:55 87° 173° (S) 1,205 4.3 -27.5°
Drops below altitude 10° 20:36:13 10° 84° (E) 8,998 9.9 -23.3°
Sets 20:59:40 0° 84° (E) 16,431 11.6 -18.0°
